Regional Weather Roundup
Issued by NWS

Home | Current Version | Previous Version | Text Only | Print | Product List | Glossary On
Versions: 1 2 3 4 5 6 7 8 9 10 11 12 13 14 15 16 17 18 19 20 21 22 23 24 25 26 27 28 29 30 31 32 33 34 35 36 37 38 39 40 41 42 43 44 45 46 47 48 49 50
000
ASUS43 KBIS 022002
RWRND

NORTH DAKOTA REGIONAL WEATHER ROUNDUP
NATIONAL WEATHER SERVICE BISMARCK ND
200 PM CST FRI DEC 02 2016

NOTE: "FAIR" INDICATES FEW OR NO CLOUDS BELOW 12,000 FEET WITH NO
SIGNIFICANT WEATHER AND/OR OBSTRUCTIONS TO VISIBILITY.


NDZ001>003-009>011-017-022100-
NORTHWEST NORTH DAKOTA

CITY           SKY/WX    TMP DP  RH WIND       PRES   REMARKS
WILLISTON      CLOUDY    30  24  78 SW8       30.16F
MINOT          CLOUDY    29  24  82 S10       30.18F WCI  20
MINOT AFB      CLOUDY    29  25  85 SW10      30.17F WCI  19
$$

NDZ018>021-031>035-040>046-022100-
SOUTHWEST NORTH DAKOTA

CITY           SKY/WX    TMP DP  RH WIND       PRES   REMARKS
BISMARCK       CLOUDY    26  19  74 SE6       30.24F WCI  19
DICKINSON      CLOUDY    27  23  85 W6        30.14F
GARRISON         N/A     27  23  85 S10       30.19F WCI  17
HETTINGER ARPT MOSUNNY   31  25  78 W7        30.18S
$$

NDZ004>008-012>016-024-026-027-054-022100-
NORTHEAST NORTH DAKOTA

CITY           SKY/WX    TMP DP  RH WIND       PRES   REMARKS
GRAND FORKS    CLOUDY    32  21  64 NW6       30.26R
GRND FRKS AFB  CLOUDY    31  21  65 N5        30.25S
DEVILS LAKE    CLOUDY    30  20  66 W6        30.23S
$$

NDZ022-023-025-028>030-036>039-047>053-022100-
SOUTHEAST NORTH DAKOTA

CITY           SKY/WX    TMP DP  RH WIND       PRES   REMARKS
FARGO          CLOUDY    31  21  66 N8        30.26F
JAMESTOWN      CLOUDY    28  20  71 N7        30.24S
$$





USA.gov is the U.S. government's official web portal to all federal, state and local government web resources and services.